sat.trackr.live / text

‹ back to catalog

ONEWEB-0618

NORAD 55159 · 2023-004V

PAYLOAD ACTIVE UNKNOWN

§ Identity

Operator
Country
UK
Launch date
2023-01-10
Launch site
AFETR
Launch vehicle
Mass (kg)
RCS (m²)

Purposes: comms

External: N2YO · Heavens-Above · Gunter

§ Orbital elements

Epoch: 2026-09-19T23:59:40.991136Z

Period
95.12 min
Inclination
86.9090°
Eccentricity
0.0010008
Mean motion
15.13921682 rev/d
Perigee alt
517.3 km
Apogee alt
531.2 km
Semi-major
6,902.4 km
B*
1.7167e-4
RAAN
139.1308°
Arg perigee
309.9560°
Mean anomaly
50.0801°
Rev number
19,660

§ Raw data

ONEWEB-06181 55159U 23004V   26262.99977999  .00003144  00000+0  17167-3 0  99962 55159  86.9090 139.1308 0010008 309.9560  50.0801 15.13921682196609

JSON: /api/v1/satellites/55159 · /tle

For live sub-satellite position, see the globe view (requires WebGL).

§ Visibility from observer

Set your observer location to see the next 7 days of passes ≥ 10°. The values pass through the URL so the page stays shareable.

No JS? Fill the form by hand. The geolocation button needs JavaScript.